User: anonymous   Login
Location: Kott?ru
(16.6209°N, 80.6208°E)
Time: 23:15:44
(UTC+00:00)
Language:

CZ-2D R/B - Orbit

View from above orbital plane
View from above orbital plane
View from above satellite
View from above satellite

Ground track
Ground track

The orbit data is extracted from the following two-line orbital elements,

1 28738U 05024B   20332.30480881 +.00000835 +00000-0 +51984-4 0  9998
2 28738 097.3729 349.4019 0011484 348.9451 011.1525 15.12170598846012
Epoch (UTC): 27 November 2020 07:18:55
Eccentricity: 0.0011484
inclination: 97.3729°
perigee height: 521 km
apogee height: 537 km
right ascension of ascending node: 349.4019°
argument of perigee: 348.9451°
revolutions per day: 15.12170598
mean anomaly at epoch: 11.1525°
orbit number at epoch: 84601

The dashed part of the orbit path shows where the satellite is in the earth's shadow,  

DLR